Location: Bouillancy
(49.1149°N, 2.9308°E)
Time: 23:22:56
(UTC+00:00)

CZ-4C R/B - Pass Details

Date: 30 September 2020
Orbit: 626 x 1376 km, 63.4° (Epoch: 25 October)

Event Time Altitude Azimuth Distance (km) Brightness Sun altitude
Rises 20:29:33 0° 236° (SW) 3,092 5.4 -29.2°
Reaches altitude 10° 20:31:46 10° 241° (WSW) 2,250 4.7 -29.5°
Maximum altitude 20:36:50 57° 320° (NW) 986 2.7 -30.2°
Drops below altitude 10° 20:42:59 10° 39° (NE) 2,723 4.8 -31.0°
Sets 20:45:54 0° 43° (NE) 3,802 5.5 -31.4°
